Meteo Giornale » Osservazioni meteo Francia » Parigi-Orly

ore: 11:00 - Osservazioni Meteo Parigi-Orly
Lat. 48° 44' N Lon. 2° 24' E Alt. 89 metri s.l.m.

sereno Europe/Paris

23 °C

Sereno

Temp. 24 Ore

16 °C

27 °C

Nord-Est

22.2 Km/h

Dew point 10 °C

Umidità 43 %

Visibilità  10 Km

Il sole sorge alle ore 06:32

Il sole tramonta alle ore 21:20

Data e Ora Cielo e Fenomeni T °C DP °C Um. % Pres. hPa Vis. km Vento km/h
Oggi h: 11:00 sereno Sereno 23 10 43 1024 10 NE 22.2
Oggi h: 10:30 sereno Sereno 22 10 46 1024 10 N/NE 20.3
Oggi h: 10:00 sereno Sereno 21 10 49 1024 10 N/NE 16.7
Oggi h: 09:30 sereno Sereno 20 10 52 1024 10 N/NE 14.8
Oggi h: 09:00 sereno Sereno 19 10 55 1024 10 N/NE 13
Oggi h: 08:30 sereno Sereno 18 10 59 1024 10 N 16.7
Oggi h: 08:00 sereno Sereno 17 10 63 1023 10 N 18.5
Oggi h: 07:30 sereno Sereno 17 10 63 1023 10 N 18.5
Oggi h: 07:00 sereno Sereno 16 10 67 1023 10 N 14.8
Oggi h: 06:30 sereno Sereno 16 10 67 1023 10 N 13
Oggi h: 06:00 sereno Sereno 17 10 63 1023 10 N 13
Oggi h: 05:30 sereno Sereno 17 10 63 1022 10 N 14.8
Oggi h: 05:00 sereno Sereno 17 10 63 1022 10 N 14.8
Oggi h: 04:30 sereno Sereno 17 10 63 1022 10 N 13
Oggi h: 04:00 sereno Sereno 18 9 55 1022 10 N 13
Oggi h: 03:30 sereno Sereno 18 9 55 1023 10 N/NE 11.1
Oggi h: 03:00 sereno Sereno 18 9 55 1023 10 N/NE 13
Oggi h: 02:30 sereno Sereno 19 9 52 1023 10 N/NE 14.8
Oggi h: 02:00 sereno Sereno 19 8 48 1023 10 N/NE 13
Oggi h: 01:30 sereno Sereno 20 8 45 1023 10 N/NE 16.7
Oggi h: 01:00 sereno Sereno 20 7 42 1023 10 N/NE 16.7
Oggi h: 00:30 sereno Sereno 21 7 40 1023 10 N/NE 20.3
Oggi h: 00:00 sereno Sereno 22 8 40 1022 10 N/NE 18.5
Ieri h: 23:30 sereno Sereno 22 8 40 1022 10 N/NE 18.5
Ieri h: 23:00 sereno Sereno 22 8 40 1022 10 N/NE 18.5
Ieri h: 22:30 sereno Sereno 23 8 38 1022 10 N/NE 20.3
Ieri h: 22:00 sereno Sereno 23 8 38 1022 10 NE 22.2
Ieri h: 21:30 sereno Sereno 24 8 35 1022 10 N/NE 20.3
Ieri h: 21:00 sereno Sereno 24 7 33 1021 10 N/NE 20.3
Ieri h: 20:30 sereno Sereno 25 7 31 1021 10 N/NE 24
Ieri h: 20:00 sereno Sereno 25 8 33 1021 10 NE 24
Ieri h: 19:30 sereno Sereno 26 7 29 1021 10 N/NE 25.9
Ieri h: 19:00 sereno Sereno 27 7 28 1021 10 N/NE 20.3
Ieri h: 18:30 sereno Sereno 27 6 26 1021 10 NE 24
Ieri h: 18:00 sereno Sereno 27 6 26 1021 10 N/NE 18.5
Ieri h: 17:30 sereno Sereno 27 6 26 1021 10 NE 25.9
Ieri h: 17:00 sereno Sereno 27 6 26 1021 10 NE 20.3
Ieri h: 16:30 sereno Sereno 27 6 26 1022 10 N/NE 22.2
Ieri h: 16:00 sereno Sereno 27 7 28 1022 10 E/NE 22.2
Ieri h: 15:30 sereno Sereno 26 7 29 1022 10 NE 20.3
Ieri h: 15:00 sereno Sereno 26 7 29 1022 10 NE 22.2
Ieri h: 14:30 sereno Sereno 26 7 29 1023 10 N 22.2
Ieri h: 14:00 sereno Sereno 25 7 31 1023 10 NE 20.3
Ieri h: 13:30 sereno Sereno 25 7 31 1023 10 N/NE 22.2
Ieri h: 13:00 sereno Sereno 24 7 33 1023 10 NE 20.3
Ieri h: 12:30 sereno Sereno 24 7 33 1024 10 NE 22.2
Ieri h: 12:00 sereno Sereno 23 8 38 1024 10 N/NE 24